Вернуться в каталог

KUIPER-00532

АктивенСвязьVLEO
NORAD 69604·PAYLOAD·🇺🇸 United States

Запущен Jun 17, 2026 с Guiana Space Centre

Loading…

Ближайшие Пролёты (ближайшие 24 часа)

TLE

СвежийSource: CelesTrak SupGP

Эпоха: Sep 14, 2026, 22:17 UTC

1 69604C 26140N   26257.92856482 -.00736500  00000+0 -53333-1 0  2571
2 69604  51.8907 327.4544 0003436 205.0698 190.0949 15.04204660    13

Отслеживайте KUIPER-00532 в реальном времени с AllMySat

Download on the App Store